This demonstration page uses our WeatherBlox Daily Observations layout. Learn more.

Left ArrowRight Arrow

36.17497, -115.13722

Hourly Observations for June 3, 2019

Temp ( °F °C ) Dew Point ( °F °C ) Humidity (%) Winds ( mph kmh ) Pressure ( in mb ) Visibility ( mi km ) Precip ( " mm )
12:53 am 00:53 Clear 76 24.4 34 1.1 22 22 N 8 13 29.77 1008 10 16 0.00 0.00
1:53 am 01:53 Clear 76 24.4 34 1.1 22 22 N 10 17 29.77 1008 10 16 0.00 0.00
2:53 am 02:53 Clear 74 23.3 35 1.7 24 24 N 8 13 29.78 1008 10 16 0.00 0.00
3:53 am 03:53 Clear 73 22.8 35 1.7 25 25 N 6 9 29.79 1009 10 16 0.00 0.00
4:53 am 04:53 Clear 72 22.2 36 2.2 27 27 NNW 7 11 29.80 1009 10 16 0.00 0.00
5:53 am 05:53 Sunny 71 21.7 36 2.2 28 28 NW 3 6 29.83 1010 10 16 0.00 0.00
6:53 am 06:53 Sunny 73 22.8 37 2.8 27 27 NNW 7 11 29.84 1011 10 16 0.00 0.00
7:53 am 07:53 Sunny 78 25.6 37 2.8 23 23 NNW 8 13 29.85 1011 10 16 0.00 0.00
8:53 am 08:53 Sunny 81 27.2 37 2.8 21 21 VRB 3 6 29.86 1011 10 16 0.00 0.00
9:53 am 09:53 Sunny 82 27.8 36 2.2 19 19 SE 5 7 29.86 1011 10 16 0.00 0.00
10:53 am 10:53 Sunny 84 28.9 35 1.7 17 17 VRB 3 6 29.86 1011 10 16 0.00 0.00
11:53 am 11:53 Sunny 86 30 34 1.1 15 15 Calm 29.86 1011 10 16 0.00 0.00
12:53 pm 12:53 Sunny 90 32.2 31 -0.6 12 12 SSW 8 13 29.84 1010 10 16 0.00 0.00
1:53 pm 13:53 Sunny 89 31.7 29 -1.7 11 11 SSE 10 17 29.83 1010 10 16 0.00 0.00
2:53 pm 14:53 Sunny 89 31.7 28 -2.2 11 11 SE 7 11 29.81 1010 10 16 0.00 0.00
3:53 pm 15:53 Sunny 92 33.3 27 -2.8 10 10 NE 9 15 29.79 1009 10 16 0.00 0.00
4:53 pm 16:53 Sunny 90 32.2 26 -3.3 10 10 S 3 6 29.78 1008 10 16 0.00 0.00
5:53 pm 17:53 Sunny 91 32.8 26 -3.3 9 9 NNE 3 6 29.77 1008 10 16 0.00 0.00
6:53 pm 18:53 Sunny 89 31.7 26 -3.3 10 10 Calm 29.77 1008 10 16 0.00 0.00
7:53 pm 19:53 Sunny 88 31.1 27 -2.8 11 11 E 3 6 29.77 1008 10 16 0.00 0.00
8:53 pm 20:53 Clear 87 30.6 27 -2.8 11 11 Calm 29.78 1008 10 16 0.00 0.00
9:53 pm 21:53 Clear 83 28.3 33 0.6 17 17 NNW 6 9 29.81 1009 10 16 0.00 0.00
10:53 pm 22:53 Clear 81 27.2 36 2.2 20 20 NW 5 7 29.81 1009 10 16 0.00 0.00
11:53 pm 23:53 Clear 79 26.1 34 1.1 20 20 NNW 9 15 29.81 1009 10 16 0.00 0.00

Powered by AerisWeather